Terminal Aerodrome Forecast
Issued by NWS

Current Version | Previous Version | Text Only | Print | Product List | Glossary On
Versions: 1 2 3 4 5 6 7 8 9 10 11 12 13
000
FTAK31 PAJN 061729
TAFAKT
TAF
PAKT 061729Z 0618/0718 16007KT P6SM OVC060
     FM062000 14010G20KT P6SM -RA SCT025 OVC050
     FM062200 14014G28KT 5SM -RA BR SCT015 OVC025 WS020/20035KT
      TEMPO 0622/0702 2SM RA BR BKN015
     FM070500 14012G19KT 5SM -RA BR SCT025 OVC035
      AMD LTD TO CLD VIS AND WIND 0706/0715=

USA.gov is the U.S. government's official web portal to all federal, state and local government web resources and services.